Location: Bacharowice
(49.9333°N, 19.5833°E)
Time: 07:49:33
(UTC+00:00)

Cosmos 1908 Rocket - Pass Details

Date: 04 October 2021
Orbit: 605 x 633 km, 82.5° (Epoch: 27 October)

Event Time Altitude Azimuth Distance (km) Brightness Sun altitude
Rises 17:38:15 0° 226° (SW) 2,914 7.5 -14.4°
Reaches altitude 10° 17:40:55 10° 241° (WSW) 2,008 6.9 -14.9°
Maximum altitude 17:44:23 22° 293° (WNW) 1,383 6.3 -15.4°
Drops below altitude 10° 17:47:52 10° 344° (NNW) 2,008 6.5 -16.0°
Sets 17:50:32 0° 0° (N) 2,914 7.2 -16.4°
